User: anonymous   Login
Location: Csohesd
(46.2500°N, 22.6167°E)
Time: 12:49:49
(UTC+00:00)
Language:

Cosmos 1356 - Orbit

View from above orbital plane
View from above orbital plane
View from above satellite
View from above satellite

Ground track
Ground track

The orbit data is extracted from the following two-line orbital elements,

1 13153U 82039A   22021.93513761  .00008146  00000-0  17429-3 0  9992
2 13153  81.0906   6.3016 0003731  60.6775 299.4841 15.44640115177823
Epoch (UTC): 21 January 2022 22:26:35
Eccentricity: 0.0003731
inclination: 81.0906°
perigee height: 430 km
apogee height: 435 km
right ascension of ascending node: 6.3016°
argument of perigee: 60.6775°
revolutions per day: 15.44640115
mean anomaly at epoch: 299.4841°
orbit number at epoch: 17782

The dashed part of the orbit path shows where the satellite is in the earth's shadow,  

DLR